This is the latest recevied weather packets stored in our database for station/object KC1HBM. If no packets are shown the sender has not sent any weather packets the latest 1 day(s).
| Time | Temp. | Humidity | Pressure | Rain* | Wind** | Luminosity | Snow |
|---|---|---|---|---|---|---|---|
| 1836274820 | 13.33° C | 61% | 1018.2 hPa | 0 mm | 0 m/s | 0 W/m² | - |
| 1836274518 | 13.89° C | 61% | 1017.9 hPa | 0 mm | 0 m/s | 0 W/m² | - |
| 1836274372 | 13.33° C | 62% | 1018.3 hPa | 0 mm | 0 m/s | 0 W/m² | - |
| 1836274216 | 13.89° C | 60% | 1018 hPa | 0 mm | 0 m/s | 0 W/m² | - |
| 1836273910 | 13.89° C | 61% | 1018 hPa | 0 mm | 0 m/s | 0 W/m² | - |
| 1778044126 | 12.78° C | 85% | 1006.3 hPa | 0 mm | 0 m/s | 0 W/m² | - |
| 1778043823 | 12.22° C | 85% | 1006.2 hPa | 0 mm | 0 m/s | 0 W/m² | - |
| 1778043520 | 12.22° C | 85% | 1006.3 hPa | 0 mm | 0.45 m/s, 314° | 0 W/m² | - |
| 1778043217 | 12.78° C | 85% | 1006.3 hPa | 0 mm | 0 m/s | 0 W/m² | - |
| 1778042913 | 12.22° C | 85% | 1006.4 hPa | 0 mm | 1.34 m/s, 310° | 0 W/m² | - |
| 1778042611 | 12.78° C | 85% | 1006.4 hPa | 0 mm | 0 m/s | 0 W/m² | - |
| 1778042308 | 12.78° C | 85% | 1006.2 hPa | 0 mm | 0.45 m/s, 350° | 0 W/m² | - |
| 1778042005 | 12.78° C | 84% | 1006.2 hPa | 0 mm | 0.89 m/s, 41° | 0 W/m² | - |
| 1778041704 | 12.78° C | 84% | 1006.1 hPa | 0 mm | 0.89 m/s, 34° | 0 W/m² | - |
| 1778041403 | 12.78° C | 84% | 1006.3 hPa | 0 mm | 0 m/s | 0 W/m² | - |
| 1778041101 | 12.78° C | 84% | 1005.9 hPa | 0 mm | 0.89 m/s, 333° | 0 W/m² | - |
| 1778040797 | 12.78° C | 84% | 1006.1 hPa | 0 mm | 1.34 m/s, 353° | 0 W/m² | - |
| 1778040495 | 12.78° C | 84% | 1006.2 hPa | 0 mm | 0.45 m/s, 336° | 0 W/m² | - |
| 1778040192 | 12.78° C | 84% | 1005.9 hPa | 0 mm | 0.45 m/s, 323° | 0 W/m² | - |
| 1778039888 | 13.33° C | 84% | 1005.9 hPa | 0 mm | 0.45 m/s, 350° | 0 W/m² | - |
| 1778039586 | 13.33° C | 84% | 1006 hPa | 0 mm | 0.45 m/s, 315° | 0 W/m² | - |
| 1778039283 | 12.78° C | 84% | 1006.1 hPa | 0 mm | 0.89 m/s, 309° | 0 W/m² | - |
| 1778038980 | 12.78° C | 84% | 1005.9 hPa | 0 mm | 0.45 m/s, 316° | 0 W/m² | - |
| 1778038677 | 12.78° C | 84% | 1005.9 hPa | 0 mm | 0.89 m/s, 327° | 0 W/m² | - |
| 1778038373 | 12.78° C | 84% | 1005.9 hPa | 0 mm | 0.45 m/s, 325° | 0 W/m² | - |
* Rain latest hour (hover to see other rain measurements)
** Current wind speed in m/s (hover to see current wind gust speed)